Location: Cheching
(60.0667°N, 164.2167°W)
Time: 18:13:07
(UTC+00:00)

DX 1 - Pass Details

Date: 28 January 2021
Orbit: 618 x 631 km, 98.5° (Epoch: 26 February)

Event Time Altitude Azimuth Distance (km) Brightness Sun altitude
Exits shadow 07:51:01 15° 260° (W) 1,694 ? -35.2°
Drops below altitude 10° 07:51:57 10° 251° (WSW) 1,991 ? -35.3°
Sets 07:54:23 0° 239° (WSW) 2,892 ? -35.5°
